GW2440 Weather Reports


Display with metric or nautical units.
time (UTC)temp
F
wind
direction
speed
MPH
gust
MPH
rain 1hr
in
rain 24hr
in
rain mn
in
humidity
%
barometer
mb
20260502224310 68 195 3.0 6.0 0.00 0.58 0.58 99 1012.5
20260502223808 68 238 7.0 8.0 0.05 0.58 0.58 99 1012.5
20260502223306 68 187 6.0 8.0 0.05 0.58 0.58 99 1012.1
20260502222803 68 247 5.0 6.0 0.00 0.57 0.57 99 1012.1
20260502222300 68 220 2.0 2.0 0.00 0.57 0.57 99 1011.8
20260502221756 68 245 3.0 3.0 0.00 0.57 0.57 99 1012.1
20260502221252 68 196 4.0 5.0 0.00 0.57 0.57 99 1011.4
20260502220749 68 207 5.0 6.0 0.00 0.57 0.57 99 1011.8
20260502220245 68 269 5.0 7.0 0.07 0.57 0.57 99 1011.8
20260502215742 68 207 5.0 6.0 0.07 0.57 0.57 99 1012.5
20260502215239 68 237 3.0 5.0 0.00 0.56 0.56 99 1012.1
20260502214736 68 205 4.0 6.0 0.00 0.56 0.56 99 1012.1
20260502214235 68 235 5.0 7.0 0.00 0.56 0.56 99 1012.1
20260502213730 69 202 9.0 10.0 0.00 0.56 0.56 99 1012.1
20260502213228 69 235 6.0 7.0 0.00 0.56 0.56 99 1012.1
20260502212726 68 221 5.0 6.0 0.00 0.56 0.56 99 1011.8
20260502212224 69 241 7.0 8.0 0.00 0.56 0.56 99 1011.8
20260502211720 69 217 5.0 6.0 0.00 0.56 0.56 99 1011.8
20260502211217 68 231 2.0 3.0 0.00 0.56 0.56 99 1011.4
20260502210714 68 190 1.0 2.0 0.00 0.56 0.56 99 1011.1
20260502210211 68 193 3.0 3.0 0.05 0.56 0.56 99 1010.8
20260502205708 68 193 3.0 3.0 0.17 0.56 0.56 99 1011.1
20260502205159 68 197 0.0 1.0 0.17 0.56 0.56 99 1011.1
20260502204656 68 133 2.0 2.0 0.12 0.54 0.54 99 1012.1
20260502204154 69 208 2.0 3.0 0.19 0.53 0.53 99 1012.8
20260502203651 69 207 5.0 6.0 0.17 0.52 0.52 99 1013.1
20260502203149 69 206 6.0 8.0 0.12 0.50 0.50 99 1013.1
20260502202643 68 276 11.0 14.0 0.07 0.49 0.49 99 1013.1
20260502202141 68 236 8.0 11.0 0.00 0.48 0.48 99 1013.5
20260502201638 68 256 6.0 10.0 0.00 0.48 0.48 99 1013.5
20260502201134 68 232 5.0 6.0 0.00 0.48 0.48 99 1013.1
20260502200630 68 250 9.0 9.0 0.05 0.48 0.48 99 1013.1
20260502200127 68 274 7.0 10.0 0.12 0.48 0.48 99 1013.1
20260502195626 68 233 4.0 5.0 0.31 0.48 0.48 99 1013.5
20260502195121 68 262 7.0 8.0 0.19 0.46 0.46 99 1013.5
20260502194618 68 208 3.0 3.0 0.00 0.43 0.43 99 1013.5
20260502194115 68 243 12.0 16.0 0.00 0.43 0.43 99 1013.8
20260502193612 68 232 4.0 5.0 0.12 0.43 0.43 99 1013.1
20260502193108 69 262 9.0 11.0 0.35 0.43 0.43 99 1012.8
20260502192604 69 290 8.0 10.0 0.31 0.42 0.42 98 1013.1
20260502192102 69 229 4.0 5.0 0.59 0.37 0.37 97 1013.1
20260502191558 70 229 7.0 10.0 0.59 0.37 0.37 96 1013.5
20260502191056 72 238 14.0 21.0 0.00 0.27 0.27 95 1013.5
20260502190553 75 275 5.0 6.0 0.00 0.27 0.27 99 1013.5
20260502190050 74 233 5.0 5.0 0.00 0.27 0.27 99 1012.5
20260502185544 74 221 1.0 1.0 0.00 0.27 0.27 99 1012.5
20260502185042 74 218 4.0 5.0 0.00 0.27 0.27 99 1012.5
20260502184538 74 236 4.0 5.0 0.00 0.27 0.27 99 1012.8
20260502184034 74 265 5.0 6.0 0.00 0.27 0.27 99 1012.5
20260502183530 73 206 3.0 3.0 0.00 0.27 0.27 99 1012.8
20260502183027 73 280 3.0 3.0 0.00 0.27 0.27 99 1012.5
20260502182521 72 253 5.0 6.0 0.00 0.27 0.27 99 1012.5
20260502182018 71 218 4.0 5.0 0.00 0.27 0.27 99 1012.5
20260502181516 70 267 6.0 8.0 0.00 0.27 0.27 99 1012.5
20260502181015 69 241 3.0 5.0 0.07 0.27 0.27 99 1012.1
20260502180511 69 238 4.0 5.0 1.09 0.27 0.27 99 1012.1
20260502170430 85 247 9.0 14.0 0.00 0.00 0.00 69 1012.5
20260502163913 85 217 9.0 14.0 0.00 0.00 0.00 69 1012.5
20260502163409 85 199 6.0 8.0 0.00 0.00 0.00 69 1012.1
20260502162908 85 210 6.0 8.0 0.00 0.00 0.00 68 1012.5
20260502162404 85 249 5.0 7.0 0.00 0.00 0.00 69 1012.5
20260502161901 85 234 9.0 13.0 0.00 0.00 0.00 69 1012.1
20260502161357 85 166 9.0 10.0 0.00 0.00 0.00 69 1012.5
20260502160855 86 219 14.0 18.0 0.00 0.00 0.00 68 1012.5
20260502160353 85 227 9.0 11.0 0.00 0.00 0.00 69 1012.5
20260502152334 81 169 3.0 3.0 0.00 0.00 0.00 74 1012.8
20260502151832 81 206 6.0 10.0 0.00 0.00 0.00 72 1013.1
20260502151328 81 194 5.0 8.0 0.00 0.00 0.00 73 1013.1
20260502150826 81 273 4.0 6.0 0.00 0.00 0.00 73 1012.8
20260502150322 81 197 8.0 10.0 0.00 0.00 0.00 73 1013.1
20260502130710 76 233 8.0 11.0 0.00 0.00 0.00 88 1012.5
20260502130208 76 191 5.0 7.0 0.00 0.00 0.00 90 1012.5
20260502123654 74 225 2.0 3.0 0.00 0.00 0.00 95 1012.5
20260502123150 74 132 4.0 5.0 0.00 0.00 0.00 95 1012.1
20260502122647 74 184 5.0 6.0 0.00 0.00 0.00 96 1012.1
20260502122144 73 146 3.0 3.0 0.00 0.00 0.00 96 1012.1
20260502121642 73 195 3.0 3.0 0.00 0.00 0.00 97 1012.5
20260502121139 72 169 3.0 5.0 0.00 0.00 0.00 98 1012.1
20260502120635 72 171 4.0 5.0 0.00 0.00 0.00 98 1012.5
20260502120132 72 186 3.0 5.0 0.00 0.00 0.00 99 1012.1
20260502115630 72 220 3.0 5.0 0.00 0.00 0.00 99 1012.1
20260502115126 71 174 3.0 3.0 0.00 0.00 0.00 99 1012.5
20260502114622 71 178 3.0 3.0 0.00 0.00 0.00 99 1012.1
20260502114120 71 151 4.0 5.0 0.00 0.00 0.00 99 1012.1
20260502113617 71 189 2.0 2.0 0.00 0.00 0.00 99 1012.1
20260502113115 71 202 2.0 2.0 0.00 0.00 0.00 99 1012.1
20260502112613 71 171 1.0 1.0 0.00 0.00 0.00 99 1012.1
20260502112110 71 196 2.0 2.0 0.00 0.00 0.00 99 1012.1
20260502111608 71 180 2.0 2.0 0.00 0.00 0.00 99 1011.8
20260502111105 71 182 1.0 2.0 0.00 0.00 0.00 99 1011.8
20260502110602 71 184 1.0 1.0 0.00 0.00 0.00 99 1011.8
20260502110059 71 167 2.0 2.0 0.00 0.00 0.00 99 1011.4
20260502105557 70 169 1.0 2.0 0.00 0.00 0.00 99 1011.4
20260502105054 71 168 1.0 1.0 0.00 0.00 0.00 99 1011.4
20260502104551 70 182 3.0 3.0 0.00 0.00 0.00 99 1011.1
20260502104048 71 187 1.0 1.0 0.00 0.00 0.00 99 1011.1
20260502103546 70 165 1.0 1.0 0.00 0.00 0.00 99 1011.1
20260502103044 70 184 1.0 1.0 0.00 0.00 0.00 99 1011.4
20260502102540 70 185 0.0 0.0 0.00 0.00 0.00 99 1011.4
20260502102037 70 185 0.0 0.0 0.00 0.00 0.00 99 1011.4
20260502101535 70 185 0.0 0.0 0.00 0.00 0.00 99 1011.4
20260502101033 70 184 0.0 0.0 0.00 0.00 0.00 99 1011.4
20260502100531 71 186 0.0 0.0 0.00 0.00 0.00 99 1011.4
20260502091506 71 192 0.0 0.0 0.00 0.00 0.00 99 1012.1
20260502091003 72 200 1.0 1.0 0.00 0.00 0.00 99 1012.1
20260502090500 72 215 1.0 1.0 0.00 0.00 0.00 99 1012.5
20260502071355 73 221 3.0 5.0 0.00 0.00 0.00 93 1011.8
20260502070853 73 216 1.0 1.0 0.00 0.00 0.00 93 1012.1
20260502070350 73 243 2.0 2.0 0.00 0.00 0.00 93 1011.8
20260502065849 73 220 2.0 2.0 0.00 0.00 0.00 93 1012.1
20260502065347 74 211 1.0 1.0 0.00 0.00 0.00 92 1012.1
20260502064844 74 251 1.0 1.0 0.00 0.00 0.00 92 1012.5
20260502064342 74 228 2.0 2.0 0.00 0.00 0.00 91 1012.1
20260502063839 74 219 2.0 3.0 0.00 0.00 0.00 91 1012.5
20260502063337 74 224 3.0 5.0 0.00 0.00 0.00 91 1012.5
20260502062834 74 279 4.0 6.0 0.00 0.00 0.00 91 1012.5
20260502062331 74 261 3.0 3.0 0.00 0.00 0.00 91 1012.5
20260502061830 74 212 2.0 2.0 0.00 0.00 0.00 91 1012.5
20260502061328 74 219 1.0 2.0 0.00 0.00 0.00 90 1012.5
20260502060823 74 240 2.0 2.0 0.00 0.00 0.00 90 1012.5
20260502060318 74 246 3.0 5.0 0.00 0.00 0.00 90 1012.5
20260502055816 75 269 4.0 5.0 0.00 0.00 0.00 89 1012.5
20260502055314 75 214 3.0 3.0 0.00 0.00 0.00 88 1012.5
20260502054814 75 205 3.0 3.0 0.00 0.00 0.00 87 1012.5
20260502054311 75 215 2.0 2.0 0.00 0.00 0.00 87 1012.8
20260502053808 75 231 4.0 5.0 0.00 0.00 0.00 86 1012.8
20260502053305 75 219 3.0 3.0 0.00 0.00 0.00 86 1012.8
20260502052803 74 225 3.0 3.0 0.00 0.00 0.00 86 1012.5
20260502052300 74 221 2.0 2.0 0.00 0.00 0.00 86 1012.8
20260502051758 74 197 2.0 3.0 0.00 0.00 0.00 87 1012.8
20260502051257 75 253 3.0 3.0 0.00 0.00 0.00 86 1012.8
20260502050752 75 218 3.0 3.0 0.00 0.00 0.00 87 1012.8
20260502050248 75 242 3.0 3.0 0.00 0.00 0.00 87 1012.8
20260502045746 75 241 1.0 2.0 0.00 0.00 0.00 88 1012.8
20260502045243 74 257 4.0 5.0 0.00 0.00 0.00 91 1012.8
20260502044739 74 273 2.0 3.0 0.00 0.00 0.00 94 1012.8
20260502044235 73 207 1.0 1.0 0.00 0.00 0.00 95 1012.8
20260502043733 74 205 0.0 1.0 0.00 0.00 0.00 94 1012.5
20260502043231 74 204 0.0 0.0 0.00 0.00 0.00 94 1012.8
20260502042730 74 204 0.0 0.0 0.00 0.00 0.00 94 1012.8
20260502042228 74 205 0.0 1.0 0.00 0.00 0.00 94 1012.8
20260502041725 74 204 1.0 1.0 0.00 0.00 0.00 94 1012.8
20260502041222 74 203 0.0 0.0 0.00 0.00 0.00 94 1012.5
20260502040719 74 203 0.0 0.0 0.00 0.00 0.00 94 1012.5
20260502040216 74 203 0.0 0.0 0.00 0.00 0.00 94 1012.8
20260502035712 74 203 0.0 0.0 0.00 0.00 0.00 93 1012.5
20260502035209 74 203 0.0 0.0 0.00 0.00 0.00 93 1012.5
20260502034706 74 203 0.0 0.0 0.00 0.00 0.00 93 1012.5
20260502034205 75 203 0.0 0.0 0.00 0.00 0.00 92 1013.1
20260502033702 75 204 0.0 0.0 0.00 0.00 0.00 92 1012.8
20260502033200 75 204 0.0 0.0 0.00 0.00 0.00 91 1012.8
20260502032656 75 204 0.0 0.0 0.00 0.00 0.00 91 1013.1
20260502032152 75 204 1.0 1.0 0.00 0.00 0.00 91 1012.8
20260502031650 76 204 1.0 1.0 0.00 0.00 0.00 91 1012.8
20260502031148 76 200 1.0 1.0 0.00 0.00 0.00 90 1013.1
20260502030647 76 231 1.0 1.0 0.00 0.00 0.00 90 1013.1
20260502030144 76 191 0.0 0.0 0.00 0.00 0.00 90 1013.1
20260502025641 76 193 0.0 0.0 0.00 0.00 0.00 90 1012.8
20260502025139 76 359 1.0 2.0 0.00 0.00 0.00 89 1012.8
20260502024637 77 97 1.0 2.0 0.00 0.00 0.00 89 1013.1
20260502024134 77 49 1.0 2.0 0.00 0.00 0.00 89 1013.1
20260502023633 77 355 1.0 2.0 0.00 0.00 0.00 88 1013.1
20260502023129 77 126 0.0 1.0 0.00 0.00 0.00 88 1013.1
20260502022626 77 64 2.0 2.0 0.00 0.00 0.00 88 1013.1
20260502022124 77 61 2.0 2.0 0.00 0.00 0.00 87 1013.1
20260502021621 77 61 2.0 2.0 0.00 0.00 0.00 87 1013.1
20260502021118 78 33 1.0 2.0 0.00 0.00 0.00 87 1013.1
20260502020615 78 41 1.0 2.0 0.00 0.00 0.00 86 1013.1
20260502020112 78 43 2.0 2.0 0.00 0.00 0.00 85 1013.1
20260502015610 78 14 2.0 3.0 0.00 0.00 0.00 85 1013.1
20260502015106 78 150 0.0 0.0 0.00 0.00 0.00 84 1012.8
20260502014603 78 151 0.0 0.0 0.00 0.00 0.00 84 1013.1
20260502014100 79 325 2.0 2.0 0.00 0.00 0.00 83 1012.8
20260502013555 79 55 3.0 3.0 0.00 0.00 0.00 83 1012.8
20260502013052 79 61 3.0 3.0 0.00 0.00 0.00 82 1012.8
20260502012549 80 329 2.0 2.0 0.00 0.00 0.00 81 1012.8
20260502012047 80 4 1.0 2.0 0.00 0.00 0.00 81 1012.8
20260502011544 80 35 1.0 2.0 0.00 0.00 0.00 79 1012.8
20260502011040 80 30 3.0 3.0 0.00 0.00 0.00 78 1012.8
20260502010537 80 60 1.0 2.0 0.00 0.00 0.00 78 1012.8
20260502010033 81 34 2.0 2.0 0.00 0.00 0.00 78 1012.8
20260502005531 81 55 3.0 3.0 0.00 0.00 0.00 78 1012.5
20260502005029 81 59 1.0 1.0 0.00 0.00 0.00 78 1012.5
20260502004524 81 113 1.0 1.0 0.00 0.00 0.00 78 1012.5
20260502004022 82 20 1.0 2.0 0.00 0.00 0.00 78 1012.5
20260502003520 82 356 2.0 2.0 0.00 0.00 0.00 79 1012.1
20260502003016 82 146 0.0 0.0 0.00 0.00 0.00 78 1012.1
20260502002512 82 62 3.0 5.0 0.00 0.00 0.00 78 1012.1
20260502002010 82 67 2.0 3.0 0.00 0.00 0.00 78 1011.8
20260502001507 82 45 5.0 6.0 0.00 0.00 0.00 77 1011.8
20260502001005 83 43 3.0 5.0 0.00 0.00 0.00 77 1011.8
20260502000503 83 44 2.0 3.0 0.00 0.00 0.00 76 1011.4
20260501235959 83 52 4.0 5.0 0.00 0.00 0.00 74 1011.8
20260501235455 84 67 5.0 9.0 0.00 0.00 0.00 73 1011.8
20260501234950 84 37 5.0 6.0 0.00 0.00 0.00 72 1011.8
20260501234447 84 43 3.0 3.0 0.00 0.00 0.00 71 1011.4
20260501233946 85 55 1.0 2.0 0.00 0.00 0.00 70 1011.1
20260501233443 87 38 4.0 5.0 0.00 0.00 0.00 66 1011.1
20260501232938 88 247 2.0 3.0 0.00 0.00 0.00 51 1011.1
20260501232436 88 358 3.0 3.0 0.00 0.00 0.00 51 1011.1
20260501231933 89 211 1.0 1.0 0.00 0.00 0.00 50 1010.8
20260501231431 89 209 1.0 2.0 0.00 0.00 0.00 50 1010.8
20260501230929 89 229 6.0 8.0 0.00 0.00 0.00 47 1010.8
20260501230428 89 226 3.0 3.0 0.00 0.00 0.00 46 1010.4
20260501225925 89 248 3.0 3.0 0.00 0.00 0.00 46 1010.8
20260501225423 89 234 2.0 2.0 0.00 0.00 0.00 47 1010.8
20260501224918 89 202 2.0 3.0 0.00 0.00 0.00 47 1010.8